Regional Weather Roundup
Issued by NWS

Home | Current Version | Previous Version | Graphics & Text | Print | Product List | Glossary On
Versions: 1 2 3 4 5 6 7 8 9 10 11 12 13 14 15 16 17 18 19 20 21 22 23 24 25 26 27 28 29 30 31 32 33 34 35 36 37 38 39 40 41 42 43 44 45 46 47 48 49 50
000
ASUS44 KMEG 291800
RWRTN
TENNESSEE HOURLY STATE WEATHER ROUNDUP
NATIONAL WEATHER SERVICE MEMPHIS TN
100 PM CDT SUN MAR 29 2015

TNZ002-004-019-021-049-052-054-088>092-291900-
WEST TENNESSEE

CITY           SKY/WX    TMP DP  RH WIND       PRES   REMARKS
MEMPHIS INTL   CLOUDY    57  37  47 S13       30.18F
NWS MEMPHIS      N/A     56 N/A N/A MISG        N/A
JACKSON        CLOUDY    54  30  40 S12G17    30.21F
DYERSBURG      CLOUDY   N/A N/A N/A S10G21    30.19F
UNION CITY     CLOUDY    54  34  47 S14       30.18F
PARIS          SUNNY     55  25  30 S13       30.21F
LEXINGTON      PTSUNNY   55  25  30 S13       30.23F
SAVANNAH       CLOUDY    54  28  37 S12       30.25F
$$

TNZ008-025-027-028-033-062-065-066-291900-
NORTH MIDDLE TENNESSEE

CITY           SKY/WX    TMP DP  RH WIND       PRES   REMARKS
NASHVILLE      MOSUNNY   56  15  20 SW9       30.26F
CLARKSVILLE    PTSUNNY   56  19  23 S14       30.22F
COOKEVILLE     SUNNY     55  16  21 S10       30.24F
CROSSVILLE       N/A     50   8  18 S12       30.26F
$$

TNZ061-075-076-078-094-096-097-291900-
SOUTH MIDDLE TENNESSEE

CITY           SKY/WX    TMP DP  RH WIND       PRES   REMARKS
FAYETTEVILLE   SUNNY     54  21  28 SW10      30.28F
TULLAHOMA      SUNNY     55   9  15 S12       30.27F
WINCHESTER     SUNNY     55  16  21 S10       30.28
COLUMBIA       SUNNY     57  27  30 SW9       30.24F
SHELBYVILLE    SUNNY     57  19  23 S10       30.27F
$$

TNZ017-018-042-046-047-291900-
NORTHEAST TENNESSEE

CITY           SKY/WX    TMP DP  RH WIND       PRES   REMARKS
TRI CITIES     MOSUNNY   49   7  18 W6        30.29F
ELIZABETHTON   CLEAR     50   1  13 SW8       30.27F
$$

TNZ012-013-036-069-073-074-291900-
CENTRAL EAST TENNESSEE

CITY           SKY/WX    TMP DP  RH WIND       PRES   REMARKS
KNOXVILLE      MOSUNNY   51  16  24 SW14      30.31
OAK RIDGE      SUNNY     52  13  21 S10       30.32F
GATLINBURG     CLEAR     50  16  25 VRB3      30.30F
$$

TNZ083-085-099-291900-
SOUTHEAST TENNESSEE

CITY           SKY/WX    TMP DP  RH WIND       PRES   REMARKS
CHATTANOOGA    SUNNY     54  12  18 S5        30.31F
$$

SKY/WX REPORTED AS FAIR MEANS FEW OR NO CLOUDS BELOW
12 THOUSAND FEET.



USA.gov is the U.S. government's official web portal to all federal, state and local government web resources and services.